Hourly Weather Rudnevo

Today, 22 April, Thursday

Time Temperature Precipitation Wind Pressure Humidity
00:00 +2°C° 0 mm 3 mps 739 mmHg 94%
01:00 +3°C° 0 mm 2 mps 739 mmHg 94%
02:00 +2°C° 0 mm 2 mps 740 mmHg 95%
03:00 +2°C° 0 mm 3 mps 740 mmHg 95%
04:00 +2°C° 0 mm 3 mps 740 mmHg 96%
05:00 +2°C° 0 mm 3 mps 740 mmHg 96%
06:00 +3°C° 0 mm 3 mps 740 mmHg 92%
07:00 +5°C° 0 mm 3 mps 740 mmHg 88%
08:00 +7°C° 0 mm 4 mps 741 mmHg 84%
09:00 +8°C° 0.2 mm 4 mps 741 mmHg 76%
10:00 +11°C° 0.2 mm 4 mps 741 mmHg 68%
11:00 +13°C° 0.2 mm 4 mps 741 mmHg 60%
12:00 +13°C° 0.5 mm 4 mps 741 mmHg 61%
13:00 +13°C° 0.5 mm 4 mps 740 mmHg 61%
14:00 +14°C° 0.5 mm 4 mps 740 mmHg 62%
15:00 +13°C° 0.5 mm 4 mps 740 mmHg 65%
16:00 +13°C° 0.5 mm 4 mps 740 mmHg 67%
17:00 +12°C° 0.5 mm 4 mps 740 mmHg 70%
18:00 +11°C° 0.1 mm 4 mps 740 mmHg 76%
19:00 +10°C° 0.1 mm 3 mps 740 mmHg 81%
20:00 +8°C° 0.1 mm 3 mps 741 mmHg 87%
21:00 +8°C° 0 mm 3 mps 740 mmHg 89%
22:00 +8°C° 0 mm 3 mps 740 mmHg 90%
23:00 +7°C° 0 mm 3 mps 740 mmHg 92%

Tomorrow, 23 April, Friday

Time Temperature Precipitation Wind Pressure Humidity
00:00 +7°C° 0 mm 4 mps 740 mmHg 91%
01:00 +7°C° 0 mm 4 mps 740 mmHg 90%
02:00 +7°C° 0 mm 5 mps 740 mmHg 89%
03:00 +7°C° 0.1 mm 4 mps 740 mmHg 90%
04:00 +7°C° 0.1 mm 4 mps 740 mmHg 92%
05:00 +7°C° 0.1 mm 3 mps 740 mmHg 94%
06:00 +6°C° 0.4 mm 4 mps 740 mmHg 93%
07:00 +6°C° 0.4 mm 4 mps 740 mmHg 92%
08:00 +6°C° 0.4 mm 5 mps 740 mmHg 92%
09:00 +5°C° 0.3 mm 4 mps 740 mmHg 91%
10:00 +5°C° 0.3 mm 3 mps 741 mmHg 90%
11:00 +5°C° 0.3 mm 2 mps 741 mmHg 89%
12:00 +6°C° 0 mm 2 mps 741 mmHg 81%
13:00 +7°C° 0 mm 3 mps 741 mmHg 73%
14:00 +8°C° 0 mm 3 mps 741 mmHg 65%
15:00 +8°C° 0 mm 2 mps 741 mmHg 66%
16:00 +8°C° 0 mm 2 mps 741 mmHg 67%
17:00 +9°C° 0 mm 1 mps 741 mmHg 68%
18:00 +8°C° 0.1 mm 1 mps 740 mmHg 72%
19:00 +7°C° 0.1 mm 1 mps 740 mmHg 76%
20:00 +6°C° 0.1 mm 1 mps 740 mmHg 79%
21:00 +6°C° 0.1 mm 1 mps 740 mmHg 81%
22:00 +6°C° 0.1 mm 1 mps 740 mmHg 83%
23:00 +5°C° 0.1 mm 1 mps 740 mmHg 85%

Day after tomorrow, 24 April, Saturday

Time Temperature Precipitation Wind Pressure Humidity
00:00 +4°C° 0 mm 2 mps 739 mmHg 86%
01:00 +3°C° 0 mm 2 mps 739 mmHg 88%
02:00 +3°C° 0 mm 2 mps 739 mmHg 89%
03:00 +2°C° 0 mm 2 mps 739 mmHg 90%
04:00 +1°C° 0 mm 2 mps 739 mmHg 91%
05:00 +1°C° 0 mm 2 mps 739 mmHg 92%
06:00 +2°C° 0 mm 2 mps 739 mmHg 84%
07:00 +2°C° 0 mm 3 mps 739 mmHg 76%
08:00 +4°C° 0 mm 3 mps 739 mmHg 67%
09:00 +5°C° 0.1 mm 4 mps 739 mmHg 60%
10:00 +5°C° 0.1 mm 4 mps 739 mmHg 53%
11:00 +6°C° 0.1 mm 4 mps 739 mmHg 46%
12:00 +6°C° 0.2 mm 5 mps 739 mmHg 48%
13:00 +6°C° 0.2 mm 5 mps 739 mmHg 49%
14:00 +6°C° 0.2 mm 5 mps 739 mmHg 50%
15:00 +6°C° 0.1 mm 5 mps 739 mmHg 52%
16:00 +5°C° 0.1 mm 4 mps 739 mmHg 55%
17:00 +5°C° 0.1 mm 4 mps 739 mmHg 57%
18:00 +4°C° 0 mm 4 mps 739 mmHg 64%
19:00 +3°C° 0 mm 3 mps 739 mmHg 71%
20:00 +1°C° 0 mm 3 mps 739 mmHg 79%
21:00 +1°C° 0 mm 3 mps 739 mmHg 82%
22:00 0°C° 0 mm 3 mps 739 mmHg 85%
23:00 0°C° 0 mm 3 mps 739 mmHg 88%

25 April, Sunday

Time Temperature Precipitation Wind Pressure Humidity
00:00 0°C° 0 mm 3 mps 739 mmHg 89%
01:00 -1°C° 0 mm 3 mps 739 mmHg 91%
02:00 -1°C° 0 mm 3 mps 739 mmHg 92%
03:00 -1°C° 0 mm 3 mps 739 mmHg 92%
04:00 -1°C° 0 mm 3 mps 739 mmHg 93%
05:00 -1°C° 0 mm 3 mps 739 mmHg 93%
06:00 0°C° 0 mm 3 mps 739 mmHg 85%
07:00 0°C° 0 mm 4 mps 739 mmHg 77%
08:00 +1°C° 0 mm 5 mps 739 mmHg 69%
09:00 +1°C° 0 mm 5 mps 739 mmHg 68%
10:00 +1°C° 0 mm 5 mps 739 mmHg 66%
11:00 +1°C° 0 mm 5 mps 740 mmHg 65%
12:00 +3°C° 0.1 mm 4 mps 740 mmHg 64%
13:00 +3°C° 0.1 mm 4 mps 740 mmHg 62%
14:00 +4°C° 0.1 mm 4 mps 740 mmHg 61%
15:00 +4°C° 0.2 mm 4 mps 740 mmHg 64%
16:00 +4°C° 0.2 mm 4 mps 739 mmHg 67%
17:00 +4°C° 0.2 mm 4 mps 739 mmHg 70%
18:00 +2°C° 0 mm 3 mps 740 mmHg 75%
19:00 +1°C° 0 mm 3 mps 740 mmHg 81%
20:00 +1°C° 0 mm 2 mps 740 mmHg 87%
21:00 -1°C° 0 mm 2 mps 740 mmHg 89%
22:00 -1°C° 0 mm 2 mps 740 mmHg 91%
23:00 -1°C° 0 mm 3 mps 740 mmHg 93%

26 April, Monday

Time Temperature Precipitation Wind Pressure Humidity
00:00 -1°C° 0 mm 3 mps 740 mmHg 94%
01:00 -2°C° 0 mm 3 mps 740 mmHg 94%
02:00 -2°C° 0 mm 3 mps 740 mmHg 95%
03:00 -2°C° 0 mm 3 mps 740 mmHg 95%
04:00 -2°C° 0 mm 2 mps 740 mmHg 94%
05:00 -2°C° 0 mm 2 mps 740 mmHg 94%
06:00 -1°C° 0 mm 3 mps 740 mmHg 87%
07:00 0°C° 0 mm 3 mps 740 mmHg 80%
08:00 0°C° 0 mm 4 mps 740 mmHg 73%
09:00 +1°C° 0 mm 4 mps 740 mmHg 71%
10:00 +1°C° 0 mm 4 mps 740 mmHg 68%
11:00 +1°C° 0 mm 4 mps 740 mmHg 66%
12:00 +1°C° 0 mm 4 mps 740 mmHg 64%
13:00 +3°C° 0 mm 4 mps 740 mmHg 61%
14:00 +2°C° 0 mm 5 mps 740 mmHg 59%
15:00 +3°C° 0 mm 4 mps 740 mmHg 59%
16:00 +3°C° 0 mm 4 mps 740 mmHg 60%
17:00 +2°C° 0 mm 3 mps 741 mmHg 61%
18:00 +1°C° 0 mm 3 mps 741 mmHg 67%
19:00 +1°C° 0 mm 2 mps 741 mmHg 74%
20:00 +1°C° 0 mm 1 mps 741 mmHg 81%
21:00 -2°C° 0 mm 2 mps 741 mmHg 83%
22:00 -2°C° 0 mm 2 mps 741 mmHg 85%
23:00 -2°C° 0 mm 2 mps 741 mmHg 87%

27 April, Tuesday

Time Temperature Precipitation Wind Pressure Humidity
00:00 -2°C° 0 mm 2 mps 740 mmHg 86%
01:00 -2°C° 0 mm 3 mps 740 mmHg 84%
02:00 -1°C° 0 mm 3 mps 740 mmHg 83%
03:00 -1°C° 0.1 mm 3 mps 740 mmHg 83%
04:00 -1°C° 0.1 mm 3 mps 740 mmHg 83%
05:00 0°C° 0.1 mm 3 mps 740 mmHg 83%
06:00 0°C° 0 mm 4 mps 741 mmHg 81%
07:00 0°C° 0 mm 4 mps 741 mmHg 79%
08:00 +1°C° 0 mm 5 mps 741 mmHg 77%
09:00 +2°C° 0 mm 5 mps 741 mmHg 75%
10:00 +2°C° 0 mm 5 mps 741 mmHg 74%
11:00 +3°C° 0 mm 5 mps 741 mmHg 72%
12:00 +5°C° 0 mm 5 mps 742 mmHg 70%
13:00 +5°C° 0 mm 4 mps 742 mmHg 69%
14:00 +5°C° 0 mm 4 mps 742 mmHg 67%
15:00 +5°C° 0 mm 3 mps 742 mmHg 70%
16:00 +5°C° 0 mm 3 mps 743 mmHg 73%
17:00 +5°C° 0 mm 2 mps 743 mmHg 75%
18:00 +5°C° 0 mm 2 mps 743 mmHg 79%
19:00 +4°C° 0 mm 2 mps 743 mmHg 83%
20:00 +4°C° 0 mm 1 mps 744 mmHg 86%
21:00 +4°C° 0 mm 1 mps 744 mmHg 85%
22:00 +4°C° 0 mm 1 mps 744 mmHg 85%
23:00 +4°C° 0 mm 1 mps 744 mmHg 84%
Show more